Location: Wanzleben
(52.0609°N, 11.4408°E)
Time: 02:29:23
(UTC+00:00)

COSMOS 2406 - Pass Details

Date: 20 January 2021
Orbit: 841 x 865 km, 71.0° (Epoch: 05 March)

Event Time Altitude Azimuth Distance (km) Brightness Sun altitude
Rises 20:52:50 0° 316° (NW) 3,458 7.1 -46.3°
Reaches altitude 10° 20:56:45 10° 291° (WNW) 2,513 6.2 -46.8°
Enters shadow 20:57:09 11° 287° (WNW) 2,451 6.1 -46.9°
